Weather History for CWGT - January, 2013

Change the Weather History Date:

Tuesday, January 1, 2013

  Actual Average Record
Temperature  
Mean Temperature 39 °F -  
Max Temperature 40 °F - - ()
Min Temperature 38 °F - - ()
Degree Days  
Heating Degree Days 26    
Moisture  
Dew Point 34 °F    
Average Humidity 80    
Maximum Humidity 88    
Minimum Humidity 67    
Precipitation  
Precipitation 0.00 in - - ()
Sea Level Pressure  
Sea Level Pressure 30.45 in    
Wind  
Wind Speed 5 mph ()    
Max Wind Speed 10 mph    
Max Gust Speed -    
T = Trace of Precipitation, MM = Missing Value Source: Averaged Metar Reports

Daily Weather History Graph

Daily Weather History Graph

Search for Another Location

Airport or City:

Trip Planner

Search our weather history database for the weather conditions in past years. The results will help you decide how hot, cold, wet, or windy it might be!

Date:

Astronomy

Jan. 01, 2013 Rise Set
Actual Time 8:13 AM PST 4:29 PM PST
Civil Twilight 7:36 AM PST 5:07 PM PST
Nautical Twilight 6:55 AM PST 5:47 PM PST
Astronomical Twilight 6:16 AM PST 6:26 PM PST
Moon 9:34 PM PST (1/1) 10:03 AM PST (1/1)
Length of Visible Light 9h 30m
Length of Day
8h 15m
Waning Gibbous, 82% of the Moon is Illuminated
Jan 1
Waning Gibbous
Jan 4
Last Quarter
Jan 11
New
Jan 18
First Quarter
Jan 26
Full

Hourly Weather History & Observations

Time (PST) Temp. Windchill Dew Point Humidity Pressure Visibility Wind Dir Wind Speed Gust Speed Precip Events Conditions
12:00 AM 40.3 °F 34.9 °F 35.6 °F 83% 30.45 in - NW 8.1 mph - N/A   Unknown
1:00 AM 40.1 °F 34.7 °F 33.8 °F 78% 30.45 in - North 8.1 mph - N/A   Unknown
2:00 AM 39.9 °F 33.9 °F 34.0 °F 79% 30.45 in - NNE 9.2 mph - N/A   Unknown
3:00 AM 39.6 °F 33.5 °F 32.9 °F 77% 30.44 in - ENE 9.2 mph - N/A   Unknown
4:00 AM 40 °F - 33 °F 67% 30.47 in - NNE 4.6 mph - -  
4:00 AM 39.7 °F 36.5 °F 32.9 °F 77% 30.47 in - NNE 4.6 mph - N/A   Unknown
5:00 AM 39.7 °F 37.6 °F 33.3 °F 78% 30.46 in - East 3.5 mph - N/A   Unknown
6:00 AM 39.7 °F - 33.4 °F 78% 30.45 in - ENE 2.3 mph - N/A   Unknown
7:00 AM 39.6 °F 33.0 °F 34.5 °F 82% 30.47 in - SE 10.4 mph - N/A   Unknown
8:00 AM 39.4 °F 32.7 °F 33.1 °F 78% 30.47 in - ESE 10.4 mph - N/A   Unknown
9:00 AM 39.4 °F 35.2 °F 34.3 °F 82% 30.50 in - ESE 5.8 mph - N/A   Unknown
10:00 AM 39 °F - 35 °F 78% 30.50 in - East 3.5 mph - -  
10:00 AM 39.4 °F 37.2 °F 34.5 °F 83% 30.50 in - East 3.5 mph - N/A   Unknown
11:00 AM 39.4 °F 35.2 °F 34.7 °F 83% 30.50 in - East 5.8 mph - N/A   Unknown
12:00 PM 39.4 °F 37.2 °F 33.6 °F 80% 30.49 in - SSE 3.5 mph - N/A   Unknown
1:00 PM 39.4 °F - 34.3 °F 82% 30.47 in - ESE 2.3 mph - N/A   Unknown
2:00 PM 39.2 °F 35.0 °F 34.5 °F 83% 30.45 in - SE 5.8 mph - N/A   Unknown
3:00 PM 39.4 °F 35.2 °F 33.8 °F 80% 30.45 in - SE 5.8 mph - N/A   Unknown
4:00 PM 39 °F - 34 °F 74% 30.44 in - East 6.9 mph - -  
4:00 PM 39.2 °F 34.2 °F 33.6 °F 80% 30.44 in - East 6.9 mph - N/A   Unknown
5:00 PM 39.2 °F 35.0 °F 33.6 °F 80% 30.43 in - ESE 5.8 mph - N/A   Unknown
6:00 PM 39.0 °F 35.7 °F 34.5 °F 84% 30.41 in - East 4.6 mph - N/A   Unknown
7:00 PM 38.8 °F - 33.4 °F 81% 30.40 in - Calm Calm - N/A   Unknown
8:00 PM 38.7 °F - 33.3 °F 81% 30.39 in - Calm Calm - N/A   Unknown
9:00 PM 39.0 °F - 35.4 °F 87% 30.38 in - ESE 2.3 mph - N/A   Unknown
10:00 PM 39 °F - 35 °F 82% 30.37 in - ESE 4.6 mph - -  
11:00 PM 38.8 °F - 35.4 °F 88% 30.37 in - East 2.3 mph - N/A   Unknown